TimeEDT,TemperatureF,Dew PointF,Humidity,Sea Level PressureIn,VisibilityMPH,Wind Direction,Wind SpeedMPH,Gust SpeedMPH,PrecipitationIn,Events,Conditions,WindDirDegrees,DateUTC
12:53 AM,70.0,66.9,90,29.73,10.0,NE,10.4,-,0.07,Rain,Light Rain,40,2012-10-26 04:53:00
2:53 AM,73.9,66.0,76,29.68,10.0,NNE,13.8,19.6,N/A,,Mostly Cloudy,20,2012-10-26 06:53:00
3:09 AM,69.8,62.6,78,29.68,5.0,ENE,19.6,31.1,0.02,Rain,Light Rain,70,2012-10-26 07:09:00
3:39 AM,69.8,66.2,88,29.65,10.0,North,11.5,-,0.06,Rain,Light Rain,10,2012-10-26 07:39:00
3:53 AM,72.0,68.0,87,29.64,10.0,North,12.7,-,0.06,,Mostly Cloudy,10,2012-10-26 07:53:00
4:53 AM,71.1,66.0,84,29.63,10.0,North,16.1,-,0.07,,Overcast,350,2012-10-26 08:53:00
5:53 AM,70.0,66.9,90,29.63,10.0,North,10.4,-,0.00,,Overcast,350,2012-10-26 09:53:00
6:53 AM,69.1,66.0,90,29.65,4.0,North,26.5,33.4,0.01,Rain,Rain,10,2012-10-26 10:53:00
7:53 AM,72.0,70.0,93,29.62,7.0,North,11.5,-,0.11,,Mostly Cloudy,10,2012-10-26 11:53:00
8:53 AM,75.9,66.9,74,29.62,9.0,NNE,18.4,36.8,0.00,,Overcast,20,2012-10-26 12:53:00
9:53 AM,72.0,69.1,91,29.63,3.0,NE,23.0,52.9,0.01,Rain,Light Rain,40,2012-10-26 13:53:00
10:53 AM,75.9,69.1,79,29.62,9.0,NNE,24.2,39.1,0.00,,Overcast,20,2012-10-26 14:53:00
11:53 AM,75.0,69.1,82,29.61,10.0,North,20.7,29.9,0.00,Rain,Light Rain,10,2012-10-26 15:53:00
12:16 PM,73.4,68.0,83,29.60,1.8,North,23.0,36.8,0.01,Rain,Heavy Rain,10,2012-10-26 16:16:00
12:28 PM,73.4,71.6,94,29.59,3.0,NNE,21.9,33.4,0.08,Rain,Light Rain,20,2012-10-26 16:28:00
12:53 PM,75.0,69.1,82,29.59,8.0,NNE,27.6,35.7,0.08,Rain,Light Rain,20,2012-10-26 16:53:00
1:53 PM,77.0,69.1,76,29.55,10.0,North,26.5,35.7,0.00,,Mostly Cloudy,360,2012-10-26 17:53:00
2:53 PM,77.0,66.0,69,29.54,10.0,North,28.8,43.7,N/A,,Overcast,10,2012-10-26 18:53:00
3:32 PM,77.0,66.2,69,29.53,10.0,North,24.2,36.8,N/A,,Mostly Cloudy,10,2012-10-26 19:32:00
3:53 PM,77.0,64.9,66,29.52,10.0,North,28.8,40.3,N/A,,Overcast,360,2012-10-26 19:53:00
4:53 PM,75.9,64.0,67,29.52,10.0,North,26.5,39.1,N/A,,Overcast,10,2012-10-26 20:53:00
5:53 PM,75.0,64.9,71,29.51,9.0,North,25.3,41.4,N/A,,Overcast,360,2012-10-26 21:53:00
6:53 PM,75.0,66.0,73,29.52,10.0,North,29.9,42.6,N/A,,Mostly Cloudy,360,2012-10-26 22:53:00
7:53 PM,72.0,66.9,84,29.52,10.0,North,26.5,38.0,0.01,,Overcast,360,2012-10-26 23:53:00
9:24 PM,71.6,66.2,83,29.53,4.0,North,26.5,34.5,0.02,Rain,Heavy Rain,350,2012-10-27 01:24:00
9:32 PM,71.6,68.0,88,29.54,5.0,NNW,19.6,36.8,0.04,Rain,Light Rain,340,2012-10-27 01:32:00
9:53 PM,71.1,66.0,84,29.53,9.0,NNW,25.3,35.7,0.04,,Overcast,330,2012-10-27 01:53:00
10:39 PM,69.8,66.2,88,29.54,2.5,NNW,17.3,33.4,0.11,Rain,Heavy Rain,330,2012-10-27 02:39:00
10:47 PM,68.0,66.2,94,29.54,3.0,NNW,17.3,27.6,0.17,Rain,Rain,330,2012-10-27 02:47:00
11:53 PM,69.1,66.9,93,29.52,10.0,NW,15.0,-,0.02,Rain,Light Rain,310,2012-10-27 03:53:00